Regional Weather Roundup
Issued by NWS

Home | Current Version | Previous Version | Text Only | Print | Product List | Glossary Off
Versions: 1 2 3 4 5 6 7 8 9 10 11 12 13 14 15 16 17 18 19 20 21 22 23 24 25 26 27 28 29 30 31 32 33 34 35 36 37 38 39 40 41 42 43 44 45 46 47 48 49 50

000
ASUS43 KOAX 180002
RWRNE

WEATHER ROUNDUP FOR NEBRASKA
NATIONAL WEATHER SERVICE OMAHA NE
700 PM CDT WED SEP 17 2014

NOTES: SATELLITE DATA IS BEING USED TO AUGMENT CLOUD COVER ABOVE
       12000 FEET.
       "FAIR" INDICATES FEW OR NO CLOUDS BELOW 12,000 FEET WITH NO
       SIGNIFICANT WEATHER AND/OR OBSTRUCTIONS TO VISIBILITY.

  * THESE STATIONS DO NOT REPORT WEATHER SUCH AS RAIN...SNOW OR FOG.

NEZ001>004-019>022-054>056-180100-
NEBRASKA PANHANDLE

CITY           SKY/WX    TMP DP  RH WIND       PRES   REMARKS
SCOTTSBLUFF    MOSUNNY   83  46  27 NW5       29.94R
6HR MIN TEMP:  82; 6HR MAX TEMP:  89;

ALLIANCE       PTCLDY    82  47  29 E6        29.92F
6HR MIN TEMP:  81; 6HR MAX TEMP:  87;

CHADRON        MOCLDY    81  54  39 SE7       29.88F
6HR MIN TEMP:  77; 6HR MAX TEMP:  86;

KIMBALL        PTSUNNY   81  39  22 N3        30.00R
SIDNEY         PTSUNNY   81  46  29 NE8       29.97R
6HR MIN TEMP:  81; 6HR MAX TEMP:  91;

$$

NEZ057>060-069>072-079>082-180100-
SOUTHWEST NEBRASKA

CITY           SKY/WX    TMP DP  RH WIND       PRES   REMARKS
NORTH PLATTE   CLEAR     74  62  66 E8        29.90R
6HR MIN TEMP:  74; 6HR MAX TEMP:  85;

IMPERIAL       PTCLDY    84  58  40 E9        29.90R
6HR MIN TEMP:  81; 6HR MAX TEMP:  89;

LEXINGTON      CLEAR     78  64  60 SE8       29.90S
MCCOOK         CLEAR     80  61  52 E12       29.88S
6HR MIN TEMP:  73; 6HR MAX TEMP:  88;

OGALLALA       PTCLDY    83  58  42 E5        29.89S
$$

NEZ005>010-023>029-035>040-094-180100-
NORTH CENTRAL NEBRASKA

CITY           SKY/WX    TMP DP  RH WIND       PRES   REMARKS
VALENTINE      MOCLDY    75  55  49 E14       29.93S
6HR MIN TEMP:  75; 6HR MAX TEMP:  84;

AINSWORTH      HAZE      71  57  61 E5        29.95R VSB 3/4
BROKEN BOW     CLEAR     78  60  53 SE9       29.91S
6HR MIN TEMP:  78; 6HR MAX TEMP:  86;

O`NEILL        MOCLDY    73  62  69 E5        29.93R
ORD            PTCLDY    77  61  57 SE6       29.90R
6HR MIN TEMP:  77; 6HR MAX TEMP:  82;

THEDFORD       CLEAR     80  54  41 NE9       29.91S
$$

NEZ041-046>049-061>064-073>077-083>087-180100-
SOUTH CENTRAL NEBRASKA

CITY           SKY/WX    TMP DP  RH WIND       PRES   REMARKS
GRAND ISLAND   CLEAR     76  64  66 E6        29.91R
6HR MIN TEMP:  76; 6HR MAX TEMP:  81;

AURORA         CLEAR     75  63  66 SE5       29.91S
HASTINGS       CLEAR     75  60  59 SE6       29.90S
6HR MIN TEMP:  75; 6HR MAX TEMP:  80;

HEBRON         CLEAR     76  62  61 E3        29.89S
HOLDREGE       CLEAR     75  61  60 E5        29.91R
KEARNEY *      CLEAR     75  63  64 E6        29.91S
YORK           CLEAR     73  64  73 SE6       29.91S
$$

NEZ011>018-030>034-042>045-180100-
NORTHEAST NEBRASKA

CITY           SKY/WX    TMP DP  RH WIND       PRES   REMARKS
NORFOLK        CLEAR     75  62  64 E5        29.91S
6HR MIN TEMP:  75; 6HR MAX TEMP:  81;

ALBION         PTCLDY    74  59  60 E3        29.92S
BLAIR          CLEAR     74  63  67 E3        29.91S
COLUMBUS *     CLEAR     73  63  68 E5        29.92S
FREMONT        CLEAR     76  62  61 CALM      29.91R
TEKAMAH        CLEAR     76  64  66 S3        29.90R
6HR MIN TEMP:  76; 6HR MAX TEMP:  84;

WAYNE          CLEAR     74  63  68 SE3       29.92R
$$

NEZ050>053-065>068-078-088>093-180100-
SOUTHEAST NEBRASKA

CITY           SKY/WX    TMP DP  RH WIND       PRES   REMARKS
LINCOLN        CLEAR     76  61  59 E7        29.91R
6HR MIN TEMP:  74; 6HR MAX TEMP:  80;

OMAHA EPPLEY   PTCLDY    77  61  57 E6        29.90R
6HR MIN TEMP:  74; 6HR MAX TEMP:  80;

BEATRICE       CLEAR     75  64  66 SE6       29.90S
FALLS CITY     CLEAR     74  65  73 S5        29.89S
6HR MIN TEMP:  74; 6HR MAX TEMP:  80;

PLATTSMOUTH    CLEAR     75  60  60 CALM      29.90S
$$

NEZ044-045-051>053-067-180100-
OMAHA AREA

CITY           SKY/WX    TMP DP  RH WIND       PRES   REMARKS
OMAHA EPPLEY   PTCLDY    77  61  57 E6        29.90R
6HR MIN TEMP:  74; 6HR MAX TEMP:  80;

BLAIR          CLEAR     74  63  67 E3        29.91S
FREMONT        CLEAR     76  62  61 CALM      29.91R
MILLARD        CLEAR     77  62  61 CALM      29.90R
OFFUTT AFB     CLEAR     75  67  76 SE3       29.90R
PLATTSMOUTH    CLEAR     75  60  60 CALM      29.90S
WAHOO          FAIR      75  62  63 SE3       29.91R
$$



USA.gov is the U.S. government's official web portal to all federal, state and local government web resources and services.